Tracking 22124 objects as of 23-Jan-2021
HD Live streaming from Space Station
objects crossing your sky now

SL-14 DEB

Track SL-14 DEB now!
10-day predictions


NORAD ID: 19230
Int'l Code: 1978-100Z
Perigee: 1,682.5 km
Apogee: 1,705.7 km
Inclination: 82.5 °
Period: 120.1 minutes
Semi major axis: 8065 km
RCS: 0.0516 m2 (small)
Launch date: October 26, 1978
Source: Commonwealth of Independent States (former USSR) (CIS)
Launch site: PLESETSK MISSILE AND SPACE COMPLEX (PKMTR)

Note: This is SATELLITE DEBRIS
aabbcc
Your satellite tracking list
Your tracking list is empty




NASA's NSSDC Master Catalog

Two Line Element Set (TLE):
1 19230U 78100Z   21022.80507862  .00000069  00000-0  76717-3 0  9990
2 19230  82.5334  42.2086 0014326 231.9234 301.7029 11.98638426430146
Source of the keplerian elements: AFSPC